DECAYED

ELECTRON R/B, 60354 (Decayed)

Orbit data source: Space-Track

ELECTRON R/B, 60354 was space debris in LEO originally from a launch on Fri, 02 Aug 2024 UTC launched from the Rocket Lab Launch Complex (RLLC). Debris objects in space refer to the collection of defunct objects orbiting the Earth. Examples of debris include non-operational satellites, rocket bodies, and fragments generated from explosions, collisions, or faulty payload assembly.

Not visible in the next 10 days
ELECTRON R/B details
Identifier
60354, 2024-137C
Orbit
Decayed
Last TLE update5 months ago
Origin
Flag of USRocket Lab (US)
ManufacturerRocket Lab
MissionDecayed spacecraft
Bus & MotorELECTRON ST2, Unknown motor
Mass250 kg wet, ~250 kg dry
Launch date (UTC)
2024-08-02 (5 months ago)
Launch vehicleUnknown
Launch site
Rocket Lab Launch Complex (RLLC)
Object type
Payload
Rocket body
Debris
Shape & HBRUnknown
Radar Cross SectionMedium (>0.1 m² and <1 m²)

Expand to show TLE details & history

TLE from 5 months ago
0 ELECTRON R/B
1 60354U 24137C   24227.06252620  .07493103  93388-5  13989-2 0  9990
2 60354  42.9539  69.9603 0070986 335.3226 163.4768 16.23819940  1794
Epoch: 2024-08-14T01:30Z
Definitive object data (Epoch: 2024-08-14T01:30:02.263Z)
Latitude26.63756°
Longitude-127.91036°
Altitude254.083 km
Speed7.733 km/s
True Right ascension14h 30m 16s
True Declination26° 29' 22"
Sunlit
Object was in daylight at TLE epoch
Visualization observer readout
Observer readout values are unavailable because the object's trajectory could not be propagated. This is usually caused when the trajectory data is faulty or the object's orbit has decayed.
Visualization observer readout
Observer readout values are unavailable because the object's trajectory could not be propagated. This is usually caused when the trajectory data is faulty or the object's orbit has decayed.
Orbital elements
Apogee altitude258.01 km
Perigee altitude164.459 km
Semi-major axis6,589.372 km
Eccentricity0.0070986
Inclination42.9539°
RAAN69.9603°
Arg. of periapsis335.3226°
True anomaly163.70619°
Mean anomaly163.4768°
Eccentric anomaly163.59169°
Mean motion4.05767 °/min
BSTAR0.0013989
Orbital period88.72 mins
Loading maneuver chart data...
Loading historical data...
Loading historical data...
Loading historical data...
Loading historical data...
Loading historical data...
Loading historical data...
Loading historical data...
Other satellites on launch #137 in the year 2024 (2024-08-02 UTC)

ELECTRON R/B Visibility forecast

Observer location: undefined°, undefined

This satellite is decayed
Span
Click to sort rows by Start time (UTC) header in descending order
Start Az.
Max El. time (UTC)
Max El. Az.
Max El.
End time (UTC)
End Az.
|